Tracking 27423 objects as of 8-Jun-2023
HD Live streaming from Space Station
objects crossing your sky now

FENGYUN 1C DEB

Track FENGYUN 1C DEB now!
10-day predictions


NORAD ID: 30504
Int'l Code: 1999-025AHS
Perigee: 758.0 km
Apogee: 926.6 km
Inclination: 99.1 °
Period: 101.6 minutes
Semi major axis: 7213 km
RCS: 0.0107 m2 (small)
Launch date: May 10, 1999
Source: People's Republic of China (PRC)
Launch site: Taiyaun Space Center, China (TSC)

Note: This is SATELLITE DEBRIS
Your satellite tracking list
Your tracking list is empty




NASA's NSSDC Master Catalog

Two Line Element Set (TLE):
1 30504U 99025AHS 23159.02115370  .00000952  00000-0  46437-3 0  9999
2 30504  99.1060 172.8374 0116873 311.4238  73.9340 14.17114323843669
Source of the keplerian elements: AFSPC